Location: São Paulo
(23.5507°S, 46.6334°W)
Time: 09:49:28
(UTC-03:00)

Transit 4A - Pass Details

Date: 22 February 2026
Orbit: 864 x 977 km, 66.8° (Epoch: 11 March)

Event Time Altitude Azimuth Distance (km) Brightness Sun altitude
Rises 12:31:11 0° 21° (NNE) 3,658 11.2 76.2°
Reaches altitude 10° 12:35:00 10° 43° (NE) 2,714 10.6 76.0°
Maximum altitude 12:38:21 15° 76° (ENE) 2,373 10.2 75.8°
Drops below altitude 10° 12:41:42 10° 108° (ESE) 2,706 10.4 75.5°
Sets 12:45:27 0° 130° (SE) 3,641 10.9 75.2°
